Volver al catálogo

ARIANE 44LP DEB

LostGTO
NORAD 39706·DEBRIS·🇫🇷 France

Lanzado Sep 10, 1992 desde Guiana Space Centre

Loading…

TLE

ObsoletoSource: Space-Track

Época: Jan 28, 2026, 05:36 UTC

1 39706U 92060H   26028.23376763 -.00000040  00000-0  00000-0 0  9992
2 39706   7.3941 268.1499 7046575 357.8333 193.2533  2.16056049    16

Sigue ARIANE 44LP DEB en tiempo real con AllMySat

Download on the App Store